Location: Cerroniocc
(13.7547°S, 72.0222°W)
Time: 20:02:06
(UTC+00:00)

Meteor 1-24 Rocket - Pass Details

Date: 05 July 2020
Orbit: 790 x 927 km, 81.3° (Epoch: 11 August)

Event Time Altitude Azimuth Distance (km) Brightness Sun altitude
Rises 23:33:04 0° 181° (S) 3,351 6.6 -14.4°
Reaches altitude 10° 23:35:28 10° 178° (S) 2,431 5.9 -14.9°
Maximum altitude 23:40:56 67° 96° (E) 915 3.6 -16.1°
Drops below altitude 10° 23:46:33 10° 14° (NNE) 2,501 6.2 -17.4°
Sets 23:49:02 0° 11° (N) 3,454 7.0 -18.0°
